Weather History for Caro, MI

Change the Weather History Date:

Monday, October 8, 2012

  Actual Average (KMBS) Record (KMBS)
Temperature  
Mean Temperature 40 °F 52 °F  
Max Temperature 55 °F 63 °F 90 °F (2007)
Min Temperature 25 °F 42 °F 28 °F (2001)
Degree Days  
Heating Degree Days 25    
Month to date heating degree days  
Since 1 July heating degree days  
Cooling Degree Days 0    
Month to date cooling degree days  
Year to date cooling degree days  
Moisture  
Dew Point 28 °F    
Average Humidity 67    
Maximum Humidity 100    
Minimum Humidity 32    
Precipitation  
Precipitation 0.00 in 0.09 in 0.59 in (2008)
Month to date precipitation 0.77  
Year to date precipitation 25.12  
Snow  
Snow 0.00 in - - ()
Month to date snowfall  
Since 1 July snowfall  
Since 1 September snowfall  
Snow Depth -    
Sea Level Pressure  
Sea Level Pressure 30.12 in    
Wind  
Wind Speed 4 mph (SSW)    
Max Wind Speed 16 mph    
Max Gust Speed 22 mph    
Visibility 9 miles    
Events Fog    
T = Trace of Precipitation, MM = Missing Value Source: NWS Daily Summary

Daily Weather History Graph

Daily Weather History Graph

Search for Another Location

Airport:

Trip Planner

Search our weather history database for the weather conditions in past years. The results will help you decide how hot, cold, wet, or windy it might be!

Date:

Astronomy

Oct. 08, 2012 Rise Set
Actual Time 7:39 AM EDT 7:01 PM EDT
Civil Twilight 7:11 AM EDT 7:30 PM EDT
Nautical Twilight 6:38 AM EDT 8:03 PM EDT
Astronomical Twilight 6:04 AM EDT 8:36 PM EDT
Moon 12:07 AM EDT (10/8) 3:01 PM EDT (10/8)
Length of Visible Light 12h 18m
Length of Day
11h 21m
Waning Gibbous, 46% of the Moon is Illuminated
Oct 8
Waning Gibbous
Oct 15
New
Oct 21
First Quarter
Oct 29
Full
Nov 6
Last Quarter

Hourly Weather History & Observations

Time (EDT) Temp. Windchill Dew Point Humidity Pressure Visibility Wind Dir Wind Speed Gust Speed Precip Events Conditions
12:15 AM 36.7 °F 34.1 °F 34.3 °F 91% 30.12 in 10.0 mi WSW 3.5 mph - N/A   Clear
12:35 AM 35.6 °F 32.8 °F 33.8 °F 93% 30.12 in 10.0 mi SW 3.5 mph - N/A   Scattered Clouds
12:54 AM 35.1 °F - 33.8 °F 95% 30.12 in 10.0 mi Calm Calm - N/A   Scattered Clouds
1:15 AM 33.8 °F - 32.4 °F 94% 30.12 in 10.0 mi Calm Calm - N/A   Clear
1:35 AM 32.4 °F - 31.6 °F 97% 30.12 in 10.0 mi Calm Calm - N/A   Clear
1:54 AM 33.6 °F - 32.7 °F 96% 30.12 in 10.0 mi Calm Calm - N/A   Clear
2:15 AM 32.2 °F - 31.6 °F 98% 30.13 in 10.0 mi Calm Calm - N/A   Clear
2:35 AM 30.6 °F - 30.2 °F 99% 30.13 in 0.2 mi Calm Calm - N/A Fog Light Freezing Fog
2:54 AM 30.9 °F - 30.7 °F 99% 30.13 in 1.2 mi Calm Calm - N/A   Scattered Clouds
3:15 AM 32.0 °F - 32.0 °F 100% 30.13 in 7.0 mi Calm Calm - N/A   Clear
3:35 AM 31.1 °F - 31.1 °F 100% 30.13 in 0.5 mi Calm Calm - N/A Fog Light Freezing Fog
3:54 AM 31.6 °F - 31.6 °F 100% 30.13 in 5.0 mi Calm Calm - N/A   Clear
4:15 AM 29.5 °F - 29.5 °F 100% 30.12 in 4.0 mi Calm Calm - N/A   Clear
4:34 AM 28.9 °F - 28.9 °F 100% 30.13 in 2.5 mi Calm Calm - N/A   Clear
4:55 AM 27.7 °F - 27.7 °F 100% 30.13 in 0.8 mi Calm Calm - N/A   Mist
5:15 AM 27.3 °F - 27.3 °F 100% 30.14 in 7.0 mi Calm Calm - N/A   Clear
5:34 AM 28.2 °F - 28.2 °F 100% 30.13 in 5.0 mi Calm Calm - N/A   Clear
5:55 AM 27.5 °F - 27.5 °F 100% 30.14 in 2.5 mi Calm Calm - N/A   Clear
6:15 AM 27.1 °F - 27.1 °F 100% 30.14 in 7.0 mi Calm Calm - N/A   Scattered Clouds
6:34 AM 27.5 °F - 27.5 °F 100% 30.14 in 7.0 mi Calm Calm - N/A   Scattered Clouds
6:55 AM 27.0 °F - 27.0 °F 100% 30.15 in 7.0 mi Calm Calm - N/A   Clear
7:15 AM 25.7 °F - 25.7 °F 100% 30.15 in 4.0 mi Calm Calm - N/A   Clear
7:34 AM 26.1 °F - 26.1 °F 100% 30.15 in 7.0 mi Calm Calm - N/A   Clear
7:55 AM 27.0 °F - 27.0 °F 100% 30.15 in 7.0 mi Calm Calm - N/A   Clear
8:15 AM 29.1 °F - 29.1 °F 100% 30.16 in 10.0 mi Calm Calm - N/A   Clear
8:34 AM 30.9 °F - 30.9 °F 100% 30.17 in 10.0 mi Calm Calm - N/A   Clear
8:55 AM 32.9 °F - 32.9 °F 100% 30.17 in 10.0 mi Calm Calm - N/A   Clear
9:15 AM 37.4 °F 32.8 °F 35.8 °F 94% 30.17 in 10.0 mi SSW 5.8 mph - N/A   Clear
9:35 AM 39.9 °F 34.5 °F 34.2 °F 80% 30.17 in 10.0 mi SSW 8.1 mph - N/A   Clear
9:55 AM 41.9 °F 36.3 °F 32.5 °F 69% 30.17 in 10.0 mi SSW 9.2 mph - N/A   Clear
10:14 AM 43.9 °F 37.9 °F 32.0 °F 63% 30.17 in 10.0 mi SSW 11.5 mph - N/A   Clear
10:35 AM 45.9 °F 41.2 °F 31.3 °F 57% 30.16 in 10.0 mi SW 9.2 mph - N/A   Clear
10:54 AM 47.8 °F - 30.2 °F 50% 30.16 in 10.0 mi SW 8.1 mph - N/A   Clear
11:15 AM 49.3 °F - 28.6 °F 45% 30.15 in 10.0 mi SW 12.7 mph 17.3 mph N/A   Clear
11:35 AM 50.5 °F - 28.8 °F 43% 30.15 in 10.0 mi SW 11.5 mph - N/A   Clear
11:54 AM 51.3 °F - 28.2 °F 41% 30.15 in 10.0 mi WSW 9.2 mph - N/A   Clear
12:15 PM 52.2 °F - 28.0 °F 39% 30.15 in 10.0 mi SSW 10.4 mph 19.6 mph N/A   Scattered Clouds
12:35 PM 52.5 °F - 26.4 °F 36% 30.15 in 10.0 mi SSW 16.1 mph - N/A   Scattered Clouds
12:54 PM 53.8 °F - 26.6 °F 35% 30.15 in 10.0 mi SSW 15.0 mph 20.7 mph N/A   Scattered Clouds
1:15 PM 52.3 °F - 26.2 °F 36% 30.14 in 10.0 mi WSW 11.5 mph 19.6 mph N/A   Mostly Cloudy
1:54 PM 54.9 °F - 26.4 °F 33% 30.12 in 10.0 mi SW 15.0 mph 21.9 mph N/A   Scattered Clouds
2:15 PM 55.2 °F - 26.1 °F 33% 30.12 in 10.0 mi SW 12.7 mph 20.7 mph N/A   Clear
2:35 PM 55.8 °F - 26.6 °F 33% 30.11 in 10.0 mi SW 12.7 mph 16.1 mph N/A   Clear
2:54 PM 55.2 °F - 25.5 °F 32% 30.10 in 10.0 mi South 11.5 mph 20.7 mph N/A   Clear
3:15 PM 55.6 °F - 26.4 °F 33% 30.10 in 10.0 mi South 15.0 mph 18.4 mph N/A   Clear
3:34 PM 54.3 °F - 25.9 °F 33% 30.10 in 10.0 mi South 6.9 mph 17.3 mph N/A   Clear
3:55 PM 55.2 °F - 26.1 °F 33% 30.09 in 10.0 mi South 10.4 mph 21.9 mph N/A   Clear
4:15 PM 55.4 °F - 25.9 °F 32% 30.09 in 10.0 mi SW 11.5 mph 16.1 mph N/A   Clear
4:34 PM 54.9 °F - 25.7 °F 32% 30.09 in 10.0 mi South 13.8 mph 19.6 mph N/A   Clear
4:55 PM 54.7 °F - 25.2 °F 32% 30.08 in 10.0 mi SSW 12.7 mph - N/A   Clear
5:14 PM 54.3 °F - 25.2 °F 32% 30.08 in 10.0 mi South 11.5 mph - N/A   Clear
5:35 PM 54.0 °F - 25.2 °F 33% 30.08 in 10.0 mi SW 11.5 mph 16.1 mph N/A   Clear
5:55 PM 53.4 °F - 24.8 °F 33% 30.08 in 10.0 mi South 9.2 mph - N/A   Clear
6:14 PM 52.7 °F - 24.8 °F 34% 30.07 in 10.0 mi South 9.2 mph 16.1 mph N/A   Clear
6:35 PM 51.4 °F - 24.8 °F 35% 30.07 in 10.0 mi South 5.8 mph - N/A   Clear
6:54 PM 50.2 °F - 25.0 °F 37% 30.07 in 10.0 mi South 6.9 mph - N/A   Clear
7:14 PM 48.2 °F - 25.9 °F 42% 30.08 in 10.0 mi SSE 4.6 mph - N/A   Clear
7:35 PM 46.2 °F 44.1 °F 26.6 °F 46% 30.07 in 10.0 mi SSE 4.6 mph - N/A   Clear
7:54 PM 45.1 °F 43.7 °F 27.1 °F 49% 30.08 in 10.0 mi SSE 3.5 mph - N/A   Clear
8:35 PM 41.0 °F - 27.1 °F 58% 30.09 in 10.0 mi Calm Calm - N/A   Clear
8:54 PM 39.6 °F - 27.5 °F 62% 30.09 in 10.0 mi Calm Calm - N/A   Clear
9:34 PM 41.0 °F 38.0 °F 27.5 °F 59% 30.09 in 10.0 mi SSE 4.6 mph - N/A   Clear
9:55 PM 40.3 °F 37.1 °F 27.5 °F 60% 30.09 in 10.0 mi South 4.6 mph - N/A   Clear
10:15 PM 41.0 °F 38.0 °F 27.5 °F 59% 30.09 in 10.0 mi South 4.6 mph - N/A   Clear
10:34 PM 41.2 °F 37.3 °F 27.5 °F 58% 30.09 in 10.0 mi South 5.8 mph - N/A   Clear
10:55 PM 41.4 °F 37.6 °F 27.5 °F 58% 30.10 in 10.0 mi South 5.8 mph - N/A   Clear
11:15 PM 40.8 °F 37.8 °F 27.3 °F 59% 30.09 in 10.0 mi South 4.6 mph - N/A   Clear
11:55 PM 39.7 °F 37.6 °F 27.7 °F 62% 30.09 in 10.0 mi SSE 3.5 mph - N/A   Clear